Regional Weather Roundup
Issued by NWS Sterling, VA

Home | Current Version | Previous Version | Graphics & Text | Print | Product List | Glossary On
Versions: 1 2 3 4 5 6 7 8 9 10 11 12 13 14 15 16 17 18 19 20 21 22 23 24 25 26 27 28
000
ASUS41 KLWX 072211
RWRLWX

REGIONAL WEATHER ROUNDUP
NATIONAL WEATHER SERVICE BALTIMORE MD/WASHINGTON DC
500 PM EST WED DEC 07 2016

Note: "FAIR" indicates few or no clouds below 12,000 feet
with no significant weather and/or obstructions to visibility.
 TC=TEMPERATURE CELSIUS

 * =Non NWS site. Station does not report precipitation (e.g. rain,
    snow, etc.), thunder, or fog.

DCZ001-MDZ009-015-VAZ040>042-051-053>054-072300-
WASHINGTON METRO

CITY           SKY/WX    TMP DP  RH WIND       PRES   REMARKS
WASHINGTON NAT MOCLDY    48  30  49 NW5       30.07R
DULLES         PTCLDY    42  32  67 CALM      30.06R
ANDREWS AFB    CLEAR     46  29  51 NW5       30.05R
FT BELVOIR     CLEAR     46  30  52 CALM      30.07R
QUANTICO       PTCLDY    48  30  49 NW3       30.08R
LEESBURG*      CLEAR     46  32  57 CALM      30.06S
MANASSAS*      CLEAR    N/A N/A N/A NE6       30.07R
GAITHERSBURG*  PTCLDY    43  27  52 CALM      30.09S

$$

MDZ006>007-011-014-072300-
BALTIMORE METRO

CITY           SKY/WX    TMP DP  RH WIND       PRES   REMARKS
BWI AIRPORT    PTCLDY    43  30  60 W6        30.06R
MD SCIENCE CTR   N/A     49  28  44 MISG      30.06R
MARTIN STATE   PTCLDY    45  34  65 NW6       30.07R
ANNAPOLIS      CLEAR     49  31  49 W6        30.06R

$$

MDZ012-015-019>023-072300-
MARYLAND EASTERN SHORE

CITY           SKY/WX    TMP DP  RH WIND       PRES   REMARKS
OCEAN CITY     CLOUDY    47  40  76 N6        30.06R
SALISBURY      PTCLDY    45  38  76 N5        30.06R

$$

MDZ017>025-072300-
SOUTHERN MARYLAND

CITY           SKY/WX    TMP DP  RH WIND       PRES   REMARKS
PATUXENT RIVER PTCLDY    48  35  60 NW7       30.07R
ST INIGOES     CLEAR     48  36  63 CALM      30.06R
LEONARDTOWN*   NOT AVBL

$$

MDZ003>005-072300-
NORTH CENTRAL MARYLAND

CITY           SKY/WX    TMP DP  RH WIND       PRES   REMARKS
FREDERICK*     CLEAR     45  34  65 CALM      30.07S
HAGERSTOWN APT MOCLDY    47  24  40 CALM      30.03R
WESTMINSTER*   PTCLDY    41  30  65 SW3       30.04R

$$

MDZ501>502-072300-
WESTERN MARYLAND

CITY           SKY/WX    TMP DP  RH WIND       PRES   REMARKS
OAKLAND*       NOT AVBL
CUMBERLAND*    NOT AVBL

$$

VAZ025>031-072300-
SHENANDOAH VALLEY

CITY           SKY/WX    TMP DP  RH WIND       PRES   REMARKS
WINCHESTER*    PTCLDY    41  25  52 NW5       30.04S
FRONT ROYAL*   FAIR      45  30  57 CALM      30.03S
LURAY*         FAIR      43  36  75 CALM      30.04R
NEW MARKET*    FAIR      41  34  75 CALM      30.03S
STAUNTON*      CLEAR     43  34  70 NE3       30.05R
WAYNESBORO*    FAIR      44  31  59 CALM      30.03R

$$

WVZ021-048>050-054>055-072300-
EASTERN WEST VIRGINIA PANHANDLE

CITY           SKY/WX    TMP DP  RH WIND       PRES   REMARKS
MARTINSBURG    PTCLDY    46  26  45 CALM      30.04R
PETERSBURG*    CLEAR     44  25  46 W5        30.06R

$$

VAZ036>039-050-072300-
CENTRAL FOOTHILLS

CITY           SKY/WX    TMP DP  RH WIND       PRES   REMARKS
CHARLOTTESVILL CLEAR     53  31  42 CALM      30.04R
CULPEPER*      CLEAR     44  35  71 CALM      30.07R
ORANGE*          N/A     46  37  71 CALM      30.07R
GORDONSVILLE*  FAIR      47  38  70 CALM      30.04R
WARRENTON*     FAIR      42  30  62 E3        30.05S

$$

VAZ055>057-072300-
NORTH AND CENTRAL PIEDMONT

CITY           SKY/WX    TMP DP  RH WIND       PRES   REMARKS
FREDERICKSBRG* CLEAR     49  34  54 NE3       30.06R
STAFFORD*      CLEAR     45  34  64 CALM      30.11R

$$

NCZ024-NYZ072-PAZ021-071-VAZ022-071-072300-
OTHER REGIONAL OBSERVATIONS

CITY           SKY/WX    TMP DP  RH WIND       PRES   REMARKS
NEW YORK CITY  CLOUDY    45  35  68 CALM      30.04R
PHILADELPHIA   PTCLDY    46  35  65 W5        30.05R
PITTSBURGH     CLOUDY    39  22  50 W6        30.06R
ROANOKE        CLEAR     49  29  46 NW5       30.06R
RICHMOND       PTCLDY    50  34  54 NE6       30.05R
RALEIGH        PTCLDY    54  42  64 CALM      30.04R

$$

ANZ530>537-072300-
MARINE OBSERVATIONS

STATION/POSITION TIME  TEMP    WIND        PRES
                       AIR SEA DIR/SP/G
                 (UTC) (F)     (DEG/KT/KT) (MB)
THOMAS PT LIGHT  2200   49 49  310/  8/  9   N/A
BALT KEY BRIDGE  2148   49     270/  7/  8 1017.8R
COVE POINT       2148   49     350/ 11/ 12 1018.5R
LEWISETTA        2148   48 49  300/  5/  5 1017.8R
SOLOMONS ISLAND  2148          330/  3/  5   N/A
PINEY POINT      2136          340/  9/ 10   N/A

$$





USA.gov is the U.S. government's official web portal to all federal, state and local government web resources and services.